Cosmos 1346 - Orbit

View from above orbital plane
View from above orbital plane
View from above satellite
View from above satellite

Ground track
Ground track

The orbit data is extracted from the following two-line orbital elements,

1 13120U 82027A   13144.18160007  .00009092  00000-0  32914-3 0  9613
2 13120 081.1405 175.7873 0007260 067.7583 292.4422 15.28253185703709
Epoch (UTC): 24 May 2013 04:21:30
Eccentricity: 0.0007260
inclination: 81.1405°
perigee height: 476 km
apogee height: 486 km
right ascension of ascending node: 175.7873°
argument of perigee: 67.7583°
revolutions per day: 15.28253185
mean anomaly at epoch: 292.4422°
orbit number at epoch: 70370

The dashed part of the orbit path shows where the satellite is in the earth's shadow,  

Developed and maintained by Chris Peat, Heavens-Above GmbH. Please read the updated FAQ before sending e-mail. Imprint. DLR